Waarnemingen

Advertentie
Mijn weer
Kirkwall, Groot Brittannië (3017): temperatuur & dauwpunt: 10.01.2021 02:00:00 - 16.01.2021 02:00:00 (GMT)Kirkwall, Groot Brittannië (3017): temperatuur -20cm & temperatuur -100cm: 10.01.2021 02:00:00 - 16.01.2021 02:00:00 (GMT)Kirkwall, Groot Brittannië (3017): windsnelheid & windstoten: 10.01.2021 02:00:00 - 16.01.2021 02:00:00 (GMT)Kirkwall, Groot Brittannië (3017): windrichting: 10.01.2021 02:00:00 - 16.01.2021 02:00:00 (GMT)Kirkwall, Groot Brittannië (3017): luchtdruk: 10.01.2021 02:00:00 - 16.01.2021 02:00:00 (GMT)Kirkwall, Groot Brittannië (3017): zicht: 10.01.2021 02:00:00 - 16.01.2021 02:00:00 (GMT)Kirkwall, Groot Brittannië (3017): Zonneschijnduur: 10.01.2021 02:00:00 - 16.01.2021 02:00:00 (GMT)Kirkwall, Groot Brittannië (3017): neerslag: 10.01.2021 02:00:00 - 16.01.2021 02:00:00 (GMT)
Datum & Tijd tt [°C] td [°C] tt -20cm [°C] tt -100cm [°C] ff [km/u] ff [kn] fx [km/u] fx [kn] dd ppp [hPa] vv [km] sd [min] rr [mm]
16.01.2021 02:00:00 4,7 1,1 - - 57 31 78 42 ZZO 1010,4 27 0 0,0
16.01.2021 01:00:00 4,7 0,7 - - 54 29 76 41 ZZO 1011,6 30 0 0,0
16.01.2021 00:00:00 4,0 1,2 - - 52 28 70 38 ZZO 1013,1 30 - 0,0
15.01.2021 23:00:00 3,9 1,8 - - 42 23 61 33 ZZO 1015,4 23 0 0,0
15.01.2021 22:00:00 3,8 2,1 - - 42 23 57 31 ZZO 1016,9 30 0 0,0
15.01.2021 21:00:00 3,7 2,2 - - 42 23 55 30 ZZO 1017,5 30 0 0,0
15.01.2021 20:00:00 3,9 2,5 - - 34 18 46 25 ZZO 1018,5 35 0 0,0
15.01.2021 19:00:00 4,6 3,5 - - 29 16 - - ZO 1019,9 30 0 0,0
15.01.2021 18:00:00 3,8 2,6 - - 22 12 - - ZZO 1021,0 50 0 0,0
15.01.2021 17:00:00 3,2 2,1 - - 15 8 - - Z 1021,7 40 0 0,0
15.01.2021 16:00:00 3,1 2,2 - - 16 9 - - Z 1022,3 30 0 0,0
15.01.2021 15:00:00 3,6 2,1 - - 15 8 - - Z 1023,1 30 30 0,0
15.01.2021 14:00:00 5,6 3,6 - - 16 9 - - Z 1023,7 27 60 0,0
15.01.2021 13:00:00 6,1 4,1 - - 18 10 - - ZW 1024,3 24 54 0,0
15.01.2021 12:00:00 5,7 4,1 - - 26 14 - - ZW 1024,3 24 0 0,0
15.01.2021 11:00:00 5,4 4,5 - - 24 13 - - ZW 1024,5 12 0 0,4
15.01.2021 10:00:00 5,7 5,1 - - 18 10 - - WZW 1024,0 55 0 0,2
15.01.2021 09:00:00 5,7 4,7 4,0 5,7 21 11 - - ZW 1023,6 50 0 0,0
15.01.2021 08:00:00 5,8 4,3 - - 18 10 - - WZW 1023,0 55 0 0,0
15.01.2021 07:00:00 5,5 4,6 - - 22 12 - - WZW 1022,7 50 0 0,0
15.01.2021 06:00:00 5,3 4,4 - - 16 9 - - ZW 1022,4 55 0 0,0
15.01.2021 05:00:00 5,6 5,1 - - 16 9 - - WZW 1022,1 50 0 0,0
15.01.2021 04:00:00 5,3 5,1 - - 15 8 - - ZZW 1021,8 50 0 0,0
15.01.2021 03:00:00 5,3 5,1 - - 16 9 - - Z 1021,9 35 0 0,0
15.01.2021 02:00:00 5,0 4,9 - - 16 9 - - Z 1021,7 29 0 0,0
15.01.2021 01:00:00 5,1 4,9 - - 13 7 - - Z 1021,5 3,3 0 0,2
15.01.2021 00:00:00 5,1 4,8 - - 21 11 70 38 ZZO 1021,6 4,2 - 0,0
14.01.2021 23:00:00 4,7 4,3 - - 22 12 - - ZZO 1021,5 3,5 0 0,2
14.01.2021 22:00:00 4,6 3,9 - - 24 13 - - Z 1021,6 11 0 0,4
14.01.2021 21:00:00 4,4 3,4 - - 28 15 46 25 Z 1021,4 13 0 0,8
14.01.2021 20:00:00 4,5 3,5 - - 35 19 54 29 ZZO 1021,3 14 0 0,2
14.01.2021 19:00:00 4,6 3,0 - - 41 22 54 29 ZZO 1021,2 21 0 0,2
14.01.2021 18:00:00 4,8 2,8 - - 37 20 57 31 ZZO 1021,1 20 0 0,0
14.01.2021 17:00:00 5,1 2,2 - - 35 19 55 30 ZZO 1020,9 27 0 0,0
14.01.2021 16:00:00 5,4 1,7 - - 37 20 52 28 ZZO 1020,6 30 0 0,0
14.01.2021 15:00:00 5,4 1,5 - - 37 20 52 28 ZZO 1020,4 30 0 0,0
14.01.2021 14:00:00 5,5 1,6 - - 37 20 52 28 ZZO 1020,3 30 0 0,0
14.01.2021 13:00:00 5,4 1,2 - - 37 20 52 28 ZZO 1020,3 35 0 0,0
14.01.2021 12:00:00 5,3 1,1 - - 37 20 52 28 ZZO 1020,2 35 0 0,0
14.01.2021 11:00:00 5,3 1,7 - - 35 19 52 28 ZZO 1019,9 30 0 0,0
14.01.2021 10:00:00 5,2 1,7 - - 37 20 50 27 ZZO 1019,2 30 0 0,0
14.01.2021 09:00:00 5,1 1,7 3,9 5,7 31 17 - - ZZO 1018,5 30 0 0,0
14.01.2021 08:00:00 5,1 1,6 - - 34 18 48 26 ZO 1018,0 35 0 0,0
14.01.2021 07:00:00 4,9 1,9 - - 31 17 - - ZO 1017,6 35 0 0,0
14.01.2021 06:00:00 4,7 1,4 - - 28 15 48 26 ZO 1017,3 30 0 0,0
14.01.2021 05:00:00 4,8 1,4 - - 31 17 - - ZO 1017,0 35 0 0,0
14.01.2021 04:00:00 4,9 1,5 - - 29 16 - - ZO 1016,8 30 0 0,0
14.01.2021 03:00:00 4,6 1,1 - - 26 14 - - ZO 1016,4 35 0 0,0
14.01.2021 02:00:00 4,1 0,5 - - 24 13 - - ZO 1016,5 40 0 0,0
14.01.2021 01:00:00 3,9 -0,5 - - 24 13 - - ZO 1016,4 40 0 0,0
14.01.2021 00:00:00 3,2 -0,3 - - 18 10 - - ZO 1016,5 40 - 0,0
13.01.2021 23:00:00 3,6 -0,2 - - 21 11 - - OZO 1016,4 40 0 0,0
13.01.2021 22:00:00 3,4 0,0 - - 21 11 - - OZO 1016,3 35 0 0,0
13.01.2021 21:00:00 3,4 0,0 - - 18 10 - - OZO 1016,2 35 0 0,0
13.01.2021 20:00:00 3,8 0,5 - - 18 10 - - O 1015,9 30 0 0,0
13.01.2021 19:00:00 4,4 1,3 - - 18 10 - - O 1015,8 30 0 0,0
13.01.2021 18:00:00 4,2 1,2 - - 15 8 - - O 1015,7 45 0 0,0
13.01.2021 17:00:00 3,2 1,6 - - 13 7 - - O 1015,7 35 0 0,0
13.01.2021 16:00:00 3,3 1,4 - - 13 7 - - O 1015,6 24 0 0,0
13.01.2021 15:00:00 3,6 1,5 - - 11 6 - - ONO 1015,8 35 0 0,0
13.01.2021 14:00:00 4,6 2,0 - - 11 6 - - NO 1015,7 30 0 0,0
13.01.2021 13:00:00 5,4 2,1 - - 13 7 - - NNO 1016,0 35 42 0,0
13.01.2021 12:00:00 4,0 0,6 - - 9 5 - - NNW 1016,6 40 42 0,0
13.01.2021 11:00:00 3,9 0,0 - - 9 5 - - NNW 1016,7 35 24 0,0
13.01.2021 10:00:00 4,2 -0,5 - - 16 9 - - NNO 1016,6 40 0 0,0
13.01.2021 09:00:00 2,8 0,8 3,9 5,7 9 5 - - N 1016,1 35 0 0,0
13.01.2021 08:00:00 4,2 1,2 - - 18 10 - - N 1015,9 40 0 0,0
13.01.2021 07:00:00 2,7 -0,5 - - 16 9 - - NNW 1015,9 40 0 0,0
13.01.2021 06:00:00 3,2 0,2 - - 15 8 - - NNW 1015,7 45 0 0,0
13.01.2021 05:00:00 3,2 0,1 - - 16 9 - - NNW 1015,7 55 0 0,0
13.01.2021 04:00:00 3,4 -0,3 - - 16 9 - - NNW 1015,9 55 0 0,0
13.01.2021 03:00:00 3,3 0,2 - - 18 10 - - NNW 1016,0 60 0 0,0
13.01.2021 02:00:00 3,7 0,1 - - 21 11 - - NNW 1015,7 50 0 0,0
13.01.2021 01:00:00 3,6 0,3 - - 21 11 - - NW 1016,1 45 0 0,0
13.01.2021 00:00:00 3,9 0,0 - - 22 12 - - NNW 1015,8 55 - 0,0
12.01.2021 23:00:00 3,9 0,6 - - 21 11 - - NNW 1016,0 45 0 0,0
12.01.2021 22:00:00 4,0 0,0 - - 26 14 - - NNW 1015,4 55 0 0,0
12.01.2021 21:00:00 3,4 0,9 - - 24 13 - - NNW 1015,2 45 0 0,0
12.01.2021 20:00:00 2,3 0,4 - - 15 8 - - WNW 1014,9 45 0 0,2
12.01.2021 19:00:00 2,4 0,6 - - 18 10 - - WNW 1014,8 50 0 0,0
12.01.2021 18:00:00 4,1 0,0 - - 21 11 - - NW 1014,5 45 0 0,0
12.01.2021 17:00:00 3,9 -2,2 - - 24 13 - - NW 1014,0 50 0 0,0
12.01.2021 16:00:00 3,6 -1,5 - - 21 11 - - NW 1013,9 50 0 0,0
12.01.2021 15:00:00 4,0 -1,2 - - 24 13 - - NNW 1013,4 45 30 0,0
12.01.2021 14:00:00 4,3 -0,3 - - 26 14 - - NW 1013,0 45 54 0,0
12.01.2021 13:00:00 3,9 0,7 - - 22 12 - - NNW 1012,9 55 18 0,2
12.01.2021 12:00:00 4,2 -1,1 - - 24 13 - - NW 1012,8 60 36 0,0
12.01.2021 11:00:00 2,6 -1,1 - - 13 7 - - WNW 1012,6 45 0 0,0
12.01.2021 10:00:00 4,1 -0,3 - - 21 11 - - NNW 1012,2 50 0 0,0
12.01.2021 09:00:00 2,9 -1,3 4,0 5,7 18 10 - - NNW 1011,6 50 0 0,0
12.01.2021 08:00:00 3,4 -1,6 - - 22 12 - - NNW 1010,8 45 0 0,0
12.01.2021 07:00:00 4,0 -0,7 - - 28 15 - - N 1010,1 45 0 0,0
12.01.2021 06:00:00 3,5 -0,3 - - 28 15 - - NNW 1009,4 45 0 0,0
12.01.2021 05:00:00 3,8 -0,4 - - 28 15 - - N 1008,5 45 0 0,0
12.01.2021 04:00:00 2,7 -0,1 - - 24 13 54 29 N 1007,9 55 0 0,0
12.01.2021 03:00:00 3,7 0,6 - - 31 17 52 28 N 1007,0 45 0 0,2
12.01.2021 02:00:00 4,3 -1,0 - - 39 21 54 29 N 1005,7 45 0 0,0
12.01.2021 01:00:00 3,8 0,3 - - 37 20 57 31 NNW 1004,6 35 0 0,0
12.01.2021 00:00:00 2,8 -0,5 - - 31 17 61 33 NW 1003,9 70 - 0,2
11.01.2021 23:00:00 3,9 -0,9 - - 31 17 55 30 NW 1003,1 29 0 0,0
11.01.2021 22:00:00 3,3 -0,6 - - 21 11 - - WNW 1002,7 35 0 0,0
11.01.2021 21:00:00 2,5 0,1 - - 18 10 48 26 WNW 1002,5 35 0 0,0
11.01.2021 20:00:00 2,1 -0,5 - - 24 13 - - WNW 1002,1 50 0 0,0
11.01.2021 19:00:00 2,7 -0,7 - - 22 12 - - NW 1001,5 40 0 0,2
11.01.2021 18:00:00 1,2 0,2 - - 18 10 48 26 WNW 1001,3 45 0 0,2
11.01.2021 17:00:00 1,9 -2,0 - - 22 12 - - W 1001,2 60 0 0,0
11.01.2021 16:00:00 1,2 -2,4 - - 15 8 - - W 1001,4 60 0 0,0
11.01.2021 15:00:00 2,0 -3,0 - - 16 9 - - WNW 1001,2 55 0 0,0
11.01.2021 14:00:00 2,3 -4,5 - - 18 10 - - NNW 1001,2 75 0 0,0
11.01.2021 13:00:00 2,8 -2,4 - - 26 14 - - NNW 1001,0 70 0 0,0
11.01.2021 12:00:00 3,1 0,3 - - 24 13 - - N 1000,8 45 0 0,0
11.01.2021 11:00:00 3,0 -1,5 - - 16 9 - - NNW 1000,8 55 0 0,0
11.01.2021 10:00:00 2,9 -2,1 - - 18 10 - - NNW 1000,9 60 0 0,0
11.01.2021 09:00:00 3,0 -2,0 4,0 5,7 21 11 - - NNW 1001,1 65 0 0,0
11.01.2021 08:00:00 2,8 0,3 - - 11 6 - - NNW 1001,1 70 0 0,0
11.01.2021 07:00:00 3,1 1,0 - - 24 13 - - N 1001,1 70 0 0,0
11.01.2021 06:00:00 3,6 0,9 - - 18 10 - - N 1001,2 60 0 0,0
11.01.2021 05:00:00 3,1 2,7 - - 21 11 - - N 1001,3 22 0 0,2
11.01.2021 04:00:00 2,5 1,9 - - 13 7 - - NNO 1001,6 26 0 0,6
11.01.2021 03:00:00 2,3 1,7 - - 16 9 - - NNO 1002,0 26 0 1,0
11.01.2021 02:00:00 3,3 3,1 - - 16 9 - - NNO 1002,0 18 0 1,4
11.01.2021 01:00:00 3,3 3,1 - - 11 6 - - NNW 1002,4 8 0 0,8
11.01.2021 00:00:00 3,4 3,2 - - 11 6 61 33 ZO 1003,1 8 - 1,2
10.01.2021 23:00:00 2,6 2,3 - - 2 1 - - ZO 1004,3 4,8 0 1,6
10.01.2021 22:00:00 2,0 1,6 - - 2 1 - - ONO 1005,5 8 0 1,2
10.01.2021 21:00:00 2,0 1,6 - - 5 3 - - O 1006,8 9 0 0,8
10.01.2021 20:00:00 2,2 1,6 - - 2 1 - - ZO 1007,9 8 0 1,0
10.01.2021 19:00:00 2,5 1,8 - - 4 2 - - Z 1008,9 11 0 0,8
10.01.2021 18:00:00 2,8 2,2 - - 4 2 - - WZW 1009,7 11 0 0,6
10.01.2021 17:00:00 2,9 2,3 - - 8 4 - - WZW 1010,5 21 0 0,4
10.01.2021 16:00:00 3,1 2,5 - - 5 3 - - W 1011,1 13 0 0,8
10.01.2021 15:00:00 3,4 2,6 - - 9 5 - - WNW 1011,6 12 0 0,6
10.01.2021 14:00:00 3,3 2,5 - - 9 5 - - W 1012,0 40 0 0,2
10.01.2021 13:00:00 3,5 2,6 - - 11 6 - - W 1012,6 5 0 0,4
10.01.2021 12:00:00 4,0 2,3 - - 26 14 - - W 1013,4 21 0 0,0
10.01.2021 11:00:00 3,3 2,0 - - 11 6 - - W 1014,0 30 0 0,0
10.01.2021 10:00:00 3,2 1,1 - - 18 10 - - W 1014,3 40 0 0,0
10.01.2021 09:00:00 2,8 1,4 4,0 5,9 26 14 - - W 1014,6 25 0 0,4
10.01.2021 08:00:00 1,3 -0,2 - - 5 3 - - W 1014,8 35 0 0,0
10.01.2021 07:00:00 1,9 -0,1 - - 21 11 - - W 1015,3 35 0 0,0
10.01.2021 06:00:00 1,0 -0,5 - - 13 7 - - W 1016,0 35 0 0,0
10.01.2021 05:00:00 0,6 -1,1 - - 16 9 - - W 1016,1 40 0 0,0
10.01.2021 04:00:00 1,7 -0,8 - - 18 10 - - W 1016,6 35 0 0,0
10.01.2021 03:00:00 1,5 -1,2 - - 21 11 59 32 W 1017,0 50 0 0,0
10.01.2021 02:00:00 1,9 -1,7 - - 22 12 - - W 1017,0 30 0 0,0

tt = temperatuur
td = dauwpunt
tt -20cm = temperatuur -20cm
tt -100cm = temperatuur -100cm
ff = windsnelheid
fx = windstoten
dd = windrichting
ppp = luchtdruk
vv = zicht
sd = Zonneschijnduur
rr = neerslag

Weerstations in de omgeving